Find Kosmos-2066

NORAD ID: 20551 Int'l Des: 1990-029 Owner: UNKS Country: SU operational
LEOCIRCULAR

Live Position

Loading 3D Globe...

About Kosmos-2066

Description loading...

Upcoming Passes

Passes for default location (London). Set your location on the main map for personalized predictions.

Altitude History

Loading altitude history...

Two-Line Element Set

1 20551U 90029C 26107.28018735 -.00000024 00000-0 -43811-4 0 9992
2 20551 73.9846 34.1685 0049625 178.7522 256.0297 12.59712350656886
Epoch: Apr 17, 2026 • Age: 12 hours

Current Status

Altitude 1434.1 km
Velocity 7.15 km/s
Sub-Earth Point -62.75°S, 115.16°E
Launch Date Apr 6, 1990
Age 36 years
Type other

Technical Details

Classification Payload
Mass 60.00 kg
Dry Mass 60.00 kg
Total Mass 60.00 kg
Length 0.80 m
Diameter 0.80 m
Span 0.80 m
Shape Poly
Manufacturer NPOPM
Bus Type Strela-1 11F625
Phase Status In Orbit
Owner/State UNKS/SU

Most Searched